This demonstration page uses our WeatherBlox Daily Observations layout. Learn more.

Left ArrowRight Arrow

41.86663, -103.66717

Hourly Observations for September 21, 2021

Temp ( °F °C ) Dew Point ( °F °C ) Humidity (%) Winds ( mph kmh ) Pressure ( in mb ) Visibility ( mi km ) Precip ( " mm )
12:53 am 00:53 Cloudy with Light Rain 48 8.9 41 5 77 77 W 10 17 30.32 1027 10 16 0.00 0.00
1:53 am 01:53 Cloudy 48 8.9 40 4.4 74 74 WNW 9 15 30.35 1028 10 16 0.00 0.00
2:53 am 02:53 Clear 46 7.8 40 4.4 79 79 WNW 9 15 30.37 1028 10 16 N/A
3:53 am 03:53 Clear 44 6.7 39 3.9 83 83 WNW 9 15 30.38 1029 10 16 N/A
4:53 am 04:53 Clear 42 5.6 37 2.8 82 82 NW 7 11 30.40 1030 10 16 N/A
5:53 am 05:53 Clear 40 4.4 37 2.8 89 89 WNW 6 9 30.44 1031 10 16 N/A
6:53 am 06:53 Sunny 40 4.4 37 2.8 89 89 W 7 11 30.48 1032 10 16 N/A
7:53 am 07:53 Sunny 44 6.7 38 3.3 79 79 WNW 6 9 30.50 1033 10 16 N/A
8:53 am 08:53 Sunny 48 8.9 39 3.9 71 71 WNW 10 17 30.50 1033 10 16 N/A
9:53 am 09:53 Sunny 54 12.2 39 3.9 57 57 WNW 12 19 30.50 1033 10 16 N/A
10:53 am 10:53 Sunny 58 14.4 39 3.9 50 50 NW 9 15 30.49 1033 10 16 N/A
11:53 am 11:53 Sunny 61 16.1 36 2.2 39 39 W 8 13 30.46 1032 10 16 N/A
12:53 pm 12:53 Sunny 63 17.2 33 0.6 33 33 W 10 17 30.43 1031 10 16 N/A
1:53 pm 13:53 Sunny 65 18.3 31 -0.6 28 28 undefined N/A 30.39 1029 10 16 N/A
2:53 pm 14:53 Sunny 66 18.9 27 -2.8 23 23 W 9 15 30.38 1029 10 16 N/A
3:53 pm 15:53 Sunny 66 18.9 25 -3.9 21 21 NW 9 15 30.37 1029 10 16 N/A
4:53 pm 16:53 Sunny 67 19.4 28 -2.2 23 23 W 6 9 30.37 1028 10 16 N/A
5:53 pm 17:53 Sunny 66 18.9 26 -3.3 22 22 N N/A 30.37 1028 10 16 N/A
6:53 pm 18:53 Sunny 58 14.4 36 2.2 44 44 E 6 9 30.37 1029 10 16 N/A
7:53 pm 19:53 Clear 52 11.1 37 2.8 57 57 E 5 7 30.38 1029 10 16 N/A
8:53 pm 20:53 Clear 48 8.9 36 2.2 63 63 E 5 7 30.40 1029 10 16 N/A
9:53 pm 21:53 Clear 47 8.3 35 1.7 63 63 E 3 6 30.38 1029 10 16 N/A
10:53 pm 22:53 Clear 45 7.2 34 1.1 66 66 SE 5 7 30.38 1029 10 16 N/A
11:53 pm 23:53 Clear 42 5.6 33 0.6 71 71 E 7 11 30.36 1028 10 16 N/A

Powered by AerisWeather